Location: Hillsman's Observatory
(38.8566°N, 93.9398°W)
Time: 08:59:05
(UTC-06:00)

OTV 5 (USA 277) - Visible Passes

Search period start: 22 November 2017 00:00
Search period end: 02 December 2017 00:00
Orbit: 404 x 417 km, 43.0° (Epoch: 07 September)

Date Brightness Start Highest point End Pass type
(mag) Time Alt. Az. Time Alt. Az. Time Alt. Az.
22 Nov ? 05:28:50 20° SSW 05:28:50 20° SSW 05:30:49 10° SSE visible
29 Nov ? 19:21:50 10° SW 19:21:56 11° SSW 19:21:56 11° SSW visible
30 Nov ? 18:31:18 10° SSW 18:33:31 21° SSE 18:33:31 21° SSE visible
01 Dec ? 17:41:10 10° S 17:43:01 14° SE 17:44:52 10° ESE visible
01 Dec ? 19:16:34 10° WSW 19:17:49 21° WSW 19:17:49 21° WSW visible
